Погода Кики Акки

Погода Кики Акки : погода сейчас, прогноз погоды и архив. Всё, что Вы хотите узнать о погоде Кики Акки!

Хотите узнать прогноз погоды Кики Акки? Тогда Вам сюда: Погода Кики Акки

Поиск расширенной информации на нашем сайте:

Другие новости

Новости СМИ2

Главная страница сайта

Новости сайта

02.10.2013

Напоминаем, что на нашем новом сайте вы можете получить высокодетализированные прогнозы погоды по пунктам России, СНГ и мира (включающие важные для авиации метеовеличины, такие как направление и скорость ветра, видимость, явления погоды, количество и форма облачности, нижняя и верхняя граница облачности), а также ознакомиться с разнообразными материалами по авиационной метеорологии и подборкой полезных ссылок на эту тему.

Сайт Метеоцентр.Азия посвящён разработке технологий оптимизации авиаметеорологического обслуживания, включая проектирование и перспективное создание нескольких автоматизированных авиаметеорологических систем:
- система выпуска высокодетальных прогностических карт явлений погоды для нижнего воздушного пространства по России и ближнему зарубежью;
- система верификации прогнозов TAF (выпускаемых синоптиками официальных АМСГ РФ и ближнего зарубежья) и AUTOTAF (выпускаемых сайтом Метеоцентр.Азия) - выявление ошибок, онлайн-сопоставление с фактической погодой METAR, автоматическое внесение коррективов в прогнозы при резком отклонении фактической погоды от прогноза, подсчёт оправдываемости прогнозов по элементам и в целом;
- система обработки, анализа и отображения авиаметеорологической информации для применения провайдерами метеорологической информации.

Рекомендуем: Рыбалка сайт о рыбалке.

Погода Кики Акки - сегодня

Время (UTC), дата Ветер
(°,м/с) 
Видим.   Явления Облачность Т
(°С)
Тd
(°С)
f(%) Тe
(°С)
Pmin
(гПа)
dP
(гПа)
Po
(мм)
O2
(г/м3)
Тmin Tmax R s Состояние
почвы
15 25.05.17 280 (З) 20000 м    9/0 средняя 
[Ac trans]
+1.8 -6.3 55 1006.6  1.4  752  302    +3.6       
18 25.05.17 270 (З) 20000 м    10/0 средняя 
[Ac As]
+0.6 -4.7 68 +1  1007.4  0.7  752  303           
21 25.05.17 210 (ЮЗ) 20000 м    10/0 средняя, верхняя 
[Ac trans|Ci sp]
-2.4 -4.7 84 -2  1007.8  0.4  753  306           
00 26.05.17 140 (ЮВ) 20000 м    10/0 средняя, верхняя 
[Ac trans|Ci fib]
+2.4 -4.6 60 +3  1008.2  0.4  753  301           
03 26.05.17 160 (Ю) 20000 м    10/4 600 м верхняя 
[Sc|Ci fib]
+5.7 -7 40 +5  1008.1  753  298  -2.9      18  мокрый или
старый снег
50-90% 
06 26.05.17 310 (СЗ) 2000 м  ливневой снег  10/10 300 м кучево-дожд. 
[Cb cap]
+0.3 -0.5 94 -1  1010.4  755  304           
09 26.05.17 290 (З) 4{10}  20000 м  {ливн. осадки}  9/9 300 м кучево-дожд. 
[Cb cap]
+2.3 -2.3 72 1013.8  3.3  757  303           
12 26.05.17 310 (СЗ) 20000 м  {ливн. осадки}  8/8 300 м кучево-дожд. 
[Cb cap]
+2.6 -3.8 63 1016.9  3.1  759  304           
18 26.05.17 220 (ЮЗ) 20000 м    3/3 600 м 
[Sc]
-1.5 -5.1 76 -1  1018.4  0.5  761  309           
21 26.05.17 160 (Ю) 20000 м    8/0 верхняя 
[Ci fib]
-2.7 -4 91 -2  1018.4  761  310           
00 27.05.17 150 (ЮВ) 20000 м    8/3 600 м верхняя 
[Sc|Ci fib]
+2.3 -5.3 57 +2  1017.4  -0.9  760  304           
03 27.05.17 150 (ЮВ) 20000 м    10/5 600 м кучево-дожд., средняя 
[Cb cap|Ac As]
+3.7 -2.8 62 +2  1015.7  -1.7  759  302  -3.7      17  мокрый или
старый снег
50-90% 
06 27.05.17 120 (ЮВ) 4000 м  слаб. ливневой снег  10/8 300 м кучево-дожд., средняя 
[Cb cap|Ac As]
+1.6 +0.5 92 1013  -2.7  757  303           
15 27.05.17 110 (В) 10 км  слаб. морось  10/10 270 м 
[St]
+2.2 +1.5 95 +2  1011.1  0.2  755  302    +4.3     
03 28.05.17 110 (В) 20000 м    10/10 210 м 
[St]
+5 +4 93 +5  1008.9  -1.4  753  298  +1.9    0.0  13  мокрый или
старый снег
50-90% 
06 28.05.17 100 (В) 20000 м    9/3 600 м средняя, верхняя 
[Sc|Ac trans|Ci sp]
+9.7 +5.3 74 +10  1007.5  -1.3  752  292           
09 28.05.17 120 (ЮВ) 4{10}  20000 м    6/4 600 м верхняя 
[Sc|Ci fib]
+14.5 +7.4 62 +14  1005.9  -1.5  751  286           
12 28.05.17 110 (В) 20000 м    4/0 средняя, верхняя 
[Ac trans|Ci fib]
+17.2 +7.5 53 +18  1004.3  -1.5  750  283           
18 28.05.17 120 (ЮВ) 20000 м    10/0 средняя, верхняя 
[Ac trans|Ci fib]
+11 +6.5 74 +11  1002.2  -1.1  749  289           
21 28.05.17 110 (В) 20000 м    10/0 средняя, верхняя 
[Ac trans|Ci fib]
+9.1 +6 81 +9  1000.8  -1.5  747  290           
00 29.05.17 110 (В) 20000 м    10/0 средняя 
[Ac As]
+10.6 +6 73 +11  999  -1.8  746  288           
03 29.05.17 110 (В) 20000 м    9/0 средняя 
[Ac trans]
+14.8 +6.3 57 +15  997  -1.9  745  284  +9      мокрый или
старый снег
10-40% 
06 29.05.17 170 (Ю) 20000 м  в посл. час ливневой дождь  10/5 600 м кучево-дожд., средняя 
[Cb cap|Ac As]
+17 +6.3 49 +18  997  745  281           
09 29.05.17 090 (В) 20000 м  в посл. час ливневой дождь  10/8 600 м кучево-дожд., средняя 
[Cb cap|Ac As]
+13.4 +9.6 78 +15  996.5  -0.6  744  284           
12 29.05.17 150 (ЮВ) 20000 м  {ливн. осадки}  8/3 600 м кучево-дожд., средняя 
[Cb cap|Ac trans]
+19.4 +7 44 +20  996.9  0.5  745  279           
Время (UTC), дата Ветер
(°,м/с) 
Видим.   Явления Облачность Т
(°С)
Тd
(°С)
f(%) Тe
(°С)
Pmin
(гПа)
dP
(гПа)
Po
(мм)
O2
(г/м3)
Тmin Tmax R s Состояние
почвы

Для получения пояснительной информации подведите курсор к названию столбца.

ПОГОДА Кики Акки - архив

Всё, что Вы хотите узнать о погоде Кики Акки - удобно и подробно!

Выберите нужную дату (начиная с 1 января 2015* года) и нажмите кнопку "Найти".
Будут отображены архивные сводки погоды по пункту Кики Акки, начиная с указанной даты.


Отображать данные в формате CSV (для использования в таблицах Excel)


Внимание! Наш архив погоды предназначен исключительно для личного некоммерческого использования в познавательных целях. Если Вам необходимы официальные справки о состоянии погоды (для производственных, юридических, коммерческих и т.п. целей), обращайтесь в органы Росгидромета.

*Примечание: данная дата относится к архиву по метеостанциям СССР (Россия, СНГ, Балтия).
Архив по метеостанциям Зарубежной Европы и Азии (кроме Китая) хранится 10 дней, по другим регионам земного шара (Китай, Африка, Америка, Австралия, Океания) - 1 день.

Кики Акки - район местоположения метеостанции


Название, широта, долгота, высота метеостанции:
Кики Акки (Толька) 63.8°ш. 82.7°д. 33 м над ур. моря [Российская Федерация]

Дополнительная информация

В oтличие oт бoльшинства пoгoдных сайтoв мы публикуем пoдрoбную метеoинфoрмацию в детальнoм прoфессиoнальнoм фoрмате.

Характеристики температуры и влажнoсти вoздуха измеряются на высoте 2 м в тени вдали oт зданий и деревьев.
Скoрoсть ветра измеряется на высoте 10 м (на урoвне рoста челoвека скoрoсть ветра ниже в 1.5-2 раза). Если метеoстанция нахoдится в гoрoде или в лесу, тo скoрoсть ветра занижена на 2-4 м/с пo сравнению с oткрытым местoм. Скoрoсть ветра над акватoриями крупных рек и oзёр, а также на вершинах хoлмoв на 2-5 м/с выше, чем в oбычных услoвиях.
Атмoсфернoе давление в разных тoчках местнoсти мoжет значительнo oтличаться oт давления на метеoстанции, в зависимoсти oт услoвий рельефа (при пoдъёме на 10 м давление пoнижается примернo на 1 мм рт.ст.).